Previsão horária em Aberfeldy

Hoje, 17 Abril, Sábado

Tempo Temperatura Precipitação Vento Pressão Humidade
00:00 +3°C° 0 mm 1 m/s 744 mmHg 82%
01:00 +2°C° 0 mm 1 m/s 744 mmHg 82%
02:00 +2°C° 0 mm 1 m/s 744 mmHg 82%
03:00 +1°C° 0 mm 0 m/s 744 mmHg 82%
04:00 +1°C° 0 mm 0 m/s 744 mmHg 80%
05:00 +2°C° 0 mm 0 m/s 744 mmHg 79%
06:00 +2°C° 0 mm 0 m/s 744 mmHg 78%
07:00 +5°C° 0 mm 1 m/s 744 mmHg 72%
08:00 +6°C° 0 mm 1 m/s 744 mmHg 67%
09:00 +7°C° 0 mm 2 m/s 744 mmHg 61%
10:00 +8°C° 0 mm 2 m/s 743 mmHg 58%
11:00 +9°C° 0 mm 3 m/s 743 mmHg 54%
12:00 +10°C° 0 mm 3 m/s 743 mmHg 51%
13:00 +10°C° 0 mm 3 m/s 742 mmHg 50%
14:00 +11°C° 0 mm 3 m/s 742 mmHg 49%
15:00 +11°C° 0 mm 4 m/s 741 mmHg 47%
16:00 +10°C° 0 mm 3 m/s 741 mmHg 53%
17:00 +10°C° 0 mm 3 m/s 741 mmHg 59%
18:00 +9°C° 0 mm 3 m/s 741 mmHg 65%
19:00 +7°C° 0 mm 2 m/s 741 mmHg 73%
20:00 +6°C° 0 mm 2 m/s 741 mmHg 82%
21:00 +5°C° 0 mm 1 m/s 741 mmHg 90%
22:00 +5°C° 0 mm 1 m/s 741 mmHg 91%
23:00 +4°C° 0 mm 1 m/s 741 mmHg 93%

Amanhã, 18 Abril, Domingo

Tempo Temperatura Precipitação Vento Pressão Humidade
00:00 +4°C° 0 mm 1 m/s 740 mmHg 94%
01:00 +4°C° 0 mm 1 m/s 740 mmHg 94%
02:00 +4°C° 0 mm 1 m/s 740 mmHg 94%
03:00 +4°C° 0 mm 1 m/s 739 mmHg 94%
04:00 +4°C° 0 mm 1 m/s 739 mmHg 92%
05:00 +4°C° 0 mm 1 m/s 739 mmHg 90%
06:00 +4°C° 0 mm 1 m/s 739 mmHg 88%
07:00 +5°C° 0.1 mm 1 m/s 739 mmHg 88%
08:00 +4°C° 0.1 mm 2 m/s 739 mmHg 89%
09:00 +4°C° 0.1 mm 2 m/s 740 mmHg 89%
10:00 +4°C° 0.2 mm 2 m/s 740 mmHg 92%
11:00 +5°C° 0.2 mm 1 m/s 740 mmHg 94%
12:00 +5°C° 0.2 mm 1 m/s 740 mmHg 96%
13:00 +5°C° 0.1 mm 1 m/s 740 mmHg 96%
14:00 +5°C° 0.1 mm 1 m/s 740 mmHg 95%
15:00 +5°C° 0.1 mm 1 m/s 740 mmHg 95%
16:00 +5°C° 0 mm 1 m/s 740 mmHg 95%
17:00 +5°C° 0 mm 1 m/s 740 mmHg 95%
18:00 +5°C° 0 mm 1 m/s 740 mmHg 95%
19:00 +5°C° 0 mm 1 m/s 740 mmHg 95%
20:00 +5°C° 0 mm 1 m/s 740 mmHg 95%
21:00 +5°C° 0 mm 1 m/s 740 mmHg 96%
22:00 +5°C° 0 mm 1 m/s 740 mmHg 96%
23:00 +4°C° 0 mm 1 m/s 740 mmHg 96%

Depois de amanhã, 19 Abril, Segunda-feira

Tempo Temperatura Precipitação Vento Pressão Humidade
00:00 +4°C° 0 mm 1 m/s 740 mmHg 96%
01:00 +4°C° 0 mm 1 m/s 739 mmHg 95%
02:00 +3°C° 0 mm 1 m/s 739 mmHg 95%
03:00 +3°C° 0 mm 1 m/s 739 mmHg 95%
04:00 +3°C° 0 mm 1 m/s 739 mmHg 95%
05:00 +3°C° 0 mm 1 m/s 739 mmHg 95%
06:00 +3°C° 0 mm 1 m/s 739 mmHg 95%
07:00 +5°C° 0 mm 1 m/s 738 mmHg 89%
08:00 +7°C° 0 mm 1 m/s 738 mmHg 82%
09:00 +9°C° 0 mm 1 m/s 738 mmHg 75%
10:00 +9°C° 0 mm 2 m/s 738 mmHg 69%
11:00 +10°C° 0 mm 3 m/s 738 mmHg 62%
12:00 +11°C° 0 mm 3 m/s 737 mmHg 56%
13:00 +12°C° 0 mm 3 m/s 737 mmHg 54%
14:00 +12°C° 0 mm 4 m/s 737 mmHg 52%
15:00 +12°C° 0 mm 4 m/s 736 mmHg 50%
16:00 +11°C° 0 mm 3 m/s 736 mmHg 57%
17:00 +12°C° 0 mm 2 m/s 736 mmHg 64%
18:00 +10°C° 0 mm 2 m/s 736 mmHg 71%
19:00 +9°C° 0 mm 1 m/s 736 mmHg 76%
20:00 +8°C° 0 mm 1 m/s 736 mmHg 81%
21:00 +7°C° 0 mm 1 m/s 736 mmHg 86%
22:00 +7°C° 0 mm 1 m/s 736 mmHg 85%
23:00 +7°C° 0 mm 1 m/s 736 mmHg 85%

20 Abril, Terça-feira

Tempo Temperatura Precipitação Vento Pressão Humidade
00:00 +6°C° 0 mm 1 m/s 736 mmHg 85%
01:00 +6°C° 0 mm 1 m/s 736 mmHg 85%
02:00 +6°C° 0 mm 1 m/s 736 mmHg 84%
03:00 +5°C° 0 mm 1 m/s 736 mmHg 84%
04:00 +6°C° 0.1 mm 1 m/s 736 mmHg 84%
05:00 +6°C° 0.1 mm 1 m/s 736 mmHg 85%
06:00 +6°C° 0.1 mm 1 m/s 736 mmHg 85%
07:00 +6°C° 0 mm 1 m/s 736 mmHg 86%
08:00 +6°C° 0 mm 1 m/s 736 mmHg 87%
09:00 +7°C° 0 mm 1 m/s 736 mmHg 88%
10:00 +7°C° 0.1 mm 1 m/s 736 mmHg 85%
11:00 +8°C° 0.1 mm 1 m/s 736 mmHg 82%
12:00 +7°C° 0.1 mm 2 m/s 736 mmHg 79%
13:00 +7°C° 0.2 mm 2 m/s 736 mmHg 75%
14:00 +8°C° 0.2 mm 3 m/s 736 mmHg 71%
15:00 +7°C° 0.2 mm 4 m/s 737 mmHg 67%
16:00 +6°C° 0 mm 4 m/s 737 mmHg 64%
17:00 +6°C° 0 mm 4 m/s 737 mmHg 60%
18:00 +6°C° 0 mm 4 m/s 738 mmHg 56%
19:00 +4°C° 0 mm 3 m/s 738 mmHg 63%
20:00 +3°C° 0 mm 3 m/s 738 mmHg 69%
21:00 +2°C° 0 mm 2 m/s 739 mmHg 76%
22:00 +2°C° 0 mm 2 m/s 739 mmHg 79%
23:00 +1°C° 0 mm 2 m/s 739 mmHg 81%

21 Abril, Quarta-feira

Tempo Temperatura Precipitação Vento Pressão Humidade
00:00 -1°C° 0 mm 2 m/s 740 mmHg 84%
01:00 -1°C° 0 mm 2 m/s 740 mmHg 84%
02:00 -1°C° 0 mm 2 m/s 740 mmHg 84%
03:00 -1°C° 0 mm 2 m/s 740 mmHg 84%
04:00 -1°C° 0 mm 2 m/s 740 mmHg 83%
05:00 +2°C° 0 mm 1 m/s 740 mmHg 81%
06:00 +2°C° 0 mm 1 m/s 740 mmHg 79%
07:00 +3°C° 0 mm 2 m/s 741 mmHg 70%
08:00 +4°C° 0 mm 2 m/s 741 mmHg 60%
09:00 +6°C° 0 mm 2 m/s 741 mmHg 51%
10:00 +7°C° 0 mm 2 m/s 741 mmHg 48%
11:00 +8°C° 0 mm 2 m/s 740 mmHg 44%
12:00 +9°C° 0 mm 2 m/s 740 mmHg 41%
13:00 +10°C° 0 mm 3 m/s 740 mmHg 41%
14:00 +10°C° 0 mm 3 m/s 740 mmHg 41%
15:00 +11°C° 0 mm 3 m/s 740 mmHg 41%
16:00 +10°C° 0 mm 3 m/s 740 mmHg 45%
17:00 +9°C° 0 mm 3 m/s 740 mmHg 49%
18:00 +9°C° 0 mm 2 m/s 741 mmHg 53%
19:00 +7°C° 0 mm 2 m/s 741 mmHg 60%
20:00 +5°C° 0 mm 2 m/s 741 mmHg 66%
21:00 +4°C° 0 mm 1 m/s 742 mmHg 73%
22:00 +4°C° 0 mm 1 m/s 742 mmHg 75%
23:00 +3°C° 0 mm 1 m/s 742 mmHg 77%

22 Abril, Quinta-feira

Tempo Temperatura Precipitação Vento Pressão Humidade
00:00 +3°C° 0 mm 1 m/s 742 mmHg 79%
01:00 +3°C° 0 mm 1 m/s 742 mmHg 81%
02:00 +2°C° 0 mm 1 m/s 742 mmHg 82%
03:00 +1°C° 0 mm 0 m/s 742 mmHg 84%
04:00 +1°C° 0 mm 0 m/s 742 mmHg 83%
05:00 +2°C° 0 mm 0 m/s 742 mmHg 81%
06:00 +2°C° 0 mm 0 m/s 742 mmHg 79%
07:00 +5°C° 0 mm 1 m/s 742 mmHg 73%
08:00 +7°C° 0 mm 1 m/s 742 mmHg 66%
09:00 +9°C° 0 mm 1 m/s 742 mmHg 59%
10:00 +9°C° 0 mm 2 m/s 742 mmHg 56%
11:00 +10°C° 0 mm 2 m/s 742 mmHg 53%
12:00 +12°C° 0 mm 2 m/s 742 mmHg 50%
13:00 +12°C° 0 mm 2 m/s 742 mmHg 50%
14:00 +13°C° 0 mm 2 m/s 742 mmHg 49%
15:00 +12°C° 0 mm 3 m/s 742 mmHg 49%
16:00 +11°C° 0 mm 3 m/s 742 mmHg 54%
17:00 +10°C° 0 mm 2 m/s 742 mmHg 59%
18:00 +10°C° 0 mm 2 m/s 742 mmHg 64%
19:00 +8°C° 0 mm 2 m/s 742 mmHg 73%
20:00 +6°C° 0 mm 2 m/s 742 mmHg 82%
21:00 +5°C° 0 mm 1 m/s 742 mmHg 90%
22:00 +4°C° 0 mm 1 m/s 742 mmHg 91%
23:00 +4°C° 0 mm 1 m/s 742 mmHg 92%
Mostrar mais